Regional Weather Roundup
Issued by NWS

Home | Current Version | Previous Version | Text Only | Print | Product List | Glossary Off
Versions: 1 2 3 4 5 6 7 8 9 10 11 12 13 14 15 16 17 18 19 20 21 22 23 24 25 26 27 28 29 30 31 32 33 34 35 36 37 38 39 40 41 42 43 44 45 46 47 48 49 50

000
ASUS43 KLOT 240200
RWRIL

ILLINOIS REGIONAL WEATHER ROUNDUP
NATIONAL WEATHER SERVICE CHICAGO/ROMEOVILLE IL
900 PM CDT WED JUL 23 2014

NOTE: "FAIR" INDICATES FEW OR NO CLOUDS BELOW 12,000 FEET WITH NO
SIGNIFICANT WEATHER AND/OR OBSTRUCTIONS TO VISIBILITY.

* THESE STATIONS ARE NOT UNDER NWS QUALITY CONTROL. THEY ALSO MAY NOT
  REPORT WEATHER SUCH AS PRECIPITATION OR FOG.

ILZ001-002-007-009-015-016-024-240300-
NORTHWEST ILLINOIS

CITY           SKY/WX    TMP DP  RH WIND       PRES   REMARKS
MOLINE         CLEAR     74  55  51 CALM      30.13R
STERLING*      CLEAR     66  55  68 CALM      30.14R
$$

ILZ003-004-008-010-011-017-018-240300-
NORTH CENTRAL ILLINOIS

CITY           SKY/WX    TMP DP  RH WIND       PRES   REMARKS
ROCKFORD       PTCLDY    67  55  65 E13       30.16R
$$

ILZ005-006-012>014-019>023-240300-
NORTHEAST ILLINOIS

CITY           SKY/WX    TMP DP  RH WIND       PRES   REMARKS
CHICAGO-OHARE  PTCLDY    63  49  60 N12       30.13F
CHICAGO-MIDWAY PTCLDY    65  51  60 N10       30.13F
AURORA         CLEAR     63  51  65 NE8       30.15R
WAUKEGAN       CLEAR     60  51  72 N7        30.15S
DUPAGE AIRPORT CLEAR     62  49  62 NE12      30.14S
WHEELING       CLEAR     63  52  67 N8        30.16F
NORTHERLY ISL    N/A     62  52  69 N13         N/A
$$

LMZ740>746-240300-
SOUTHERN LAKE MICHIGAN

STATION/POSITION SKY/WX   TEMP    WIND        PRES    VSBY  WAVE
                          AIR SEA DIR/SP/G                  HT/PER
                          (F)     (DEG/KT/KT) (MB)    (MI)  (FT/S)
SOUTHERN BUOY              60 60  350/ 19/ 23 1019.8F         5/ 6
WAUKEGAN HARBOR            61     360/ 10/ 14 1022.0S
HARRISON CRIB              63     360/ 23/ 27   N/A
BURNHAM HARBOR             62     360/ 10/ 16   N/A
CALUMET HARBOR             63     340/  9/ 13 1019.1F
MICHIGAN CITY              63     360/ 25/ 28   N/A
MICHIGAN CITY 6N           64 69   20/ 17/ 23   N/A           9/ 2
ST. JOSEPH                 58 52   10/ 10/ 14   N/A           6/ 2
$$

ILZ025>027-034>036-040-047-049-050-058-095>099-240300-
WEST-CENTRAL ILLINOIS

CITY           SKY/WX    TMP DP  RH WIND       PRES   REMARKS
QUINCY         CLEAR     68  60  75 N6        30.13S
$$

ILZ028>032-037-038-041>044-048-051>054-059>061-240300-
CENTRAL ILLINOIS

CITY           SKY/WX    TMP DP  RH WIND       PRES   REMARKS
PEORIA         CLEAR     72  56  57 N3        30.12R
SPRINGFIELD    CLEAR     69  58  67 N6        30.12R
TAYLORVILLE    NOT AVBL
$$

ILZ033-039-045-046-055>057-062-063-240300-
EAST-CENTRAL ILLINOIS

CITY           SKY/WX    TMP DP  RH WIND       PRES   REMARKS
CHAMPAIGN      CLEAR     65  51  60 NE10      30.12R
MATTOON        CLEAR     64  50  60 N12       30.10R
$$

ILZ079-100>102-240300-
SOUTHWEST ILLINOIS

CITY           SKY/WX    TMP DP  RH WIND       PRES   REMARKS
ALTON          CLEAR     72  63  73 NE7       30.11R
BELLEVILLE     PTCLDY    73  63  70 N6        30.09R
CAHOKIA*       CLOUDY    77  61  57 NE7       30.10R
$$

ILZ064>066-069>071-074>076-080>082-084>086-088>090-092>094-240300-
SOUTH-CENTRAL ILLINOIS

CITY           SKY/WX    TMP DP  RH WIND       PRES   REMARKS
CARBONDALE     CLOUDY    77  66  68 N9        30.06R
MT. VERNON     CLEAR     72  57  60 N7        30.08R
$$

ILZ067-068-072-073-078-083-087-091-240300-
SOUTHEAST ILLINOIS

CITY           SKY/WX    TMP DP  RH WIND       PRES   REMARKS
LAWRENCEVILLE  CLEAR     70  58  65 N13       30.05R
$$

ABBREVIATIONS USED IN REMARKS
   TC - TEMPERATURE IN CELSIUS
  WCI - WIND CHILL INDEX
   HX - HEAT INDEX
  VSB - VISIBILITY
$$



USA.gov is the U.S. government's official web portal to all federal, state and local government web resources and services.